Flag for Brazil Weather for the Past 2 Weeks in Fernando de Noronha, Pernambuco, Brazil

Now
77 °F

Passing clouds.


Feels Like: 78 °F
Forecast: 78 / 81 °F
Wind: 3 mph from Southwest

Location: Natal Aeroporto

Current Time: Feb 13, 2016 at 3:31:16 AM

Latest Report: Feb 13, 2016 at 3:00 AM


Visibility: N/A

Pressure: 29.86 "Hg

Humidity: 89%

Dew point: 73 °F

Location of Fernando de NoronhaLocation

Historic Weather in Fernando de Noronha — Graph

°F

Fernando de Noronha Temperature Yesterday

Maximum temperature yesterday: 86 °F (at 12:00 PM)
Minimum temperature yesterday: 72 °F (at 5:00 AM)
Average temperature yesterday: 79 °F

High & Low Weather Summary for the Past Weeks

 TemperatureHumidityPressure
High90 °F (Feb 6, 12:00 PM)100% (Jan 30, 9:00 PM)30.01 "Hg (Jan 30, 9:00 PM)
Low39 °F (Jan 30, 9:00 PM)49% (Jan 29, 1:00 PM)29.83 "Hg (Jan 29, 5:00 PM)
Average79 °F80%29.92 "Hg
* Reported Jan 29 2:00 AM — Feb 13 2:00 AM, Fernando de Noronha, Weather by CustomWeather, © 2016

Note: Actual official high and low records may vary slightly from our data, if they occured in-between our weather recording intervals... More about our weather records

Advertising

Fernando de Noronha Weather History for the Previous 24 Hours

 ConditionsComfort  
Time TempWeatherWind HumidityBarometerVisibility
2:00 AM
Sat, Feb 13
79 °FPassing clouds.3 mph84%29.89 "HgN/A
1:00 AM79 °FPassing clouds.6 mph84%29.89 "HgN/A
12:00 AM79 °FPassing clouds.7 mph84%29.92 "HgN/A
11:00 PM
Fri, Feb 12
81 °FPassing clouds.7 mph79%29.92 "HgN/A
10:00 PM81 °FPassing clouds.7 mph79%29.92 "HgN/A
9:00 PM81 °FPassing clouds.7 mph79%29.89 "HgN/A
8:00 PM81 °FPassing clouds.7 mph79%29.89 "HgN/A
7:00 PM81 °FClear.8 mph79%29.86 "Hg10 mi
6:00 PM82 °FSunny.15 mph74%29.83 "Hg10 mi
5:00 PM84 °FSunny.13 mph70%29.83 "Hg10 mi
4:00 PM86 °FSunny.10 mph66%29.83 "Hg10 mi
3:00 PM86 °FSunny.10 mph62%29.86 "Hg10 mi
2:00 PM86 °FSunny.9 mph62%29.86 "Hg10 mi
1:00 PM86 °FSunny.8 mph62%29.89 "Hg10 mi
12:00 PM86 °FPassing clouds.7 mph59%29.92 "HgN/A
11:00 AM84 °FScattered clouds.7 mph62%29.92 "HgN/A
10:00 AM82 °FScattered clouds.6 mph70%29.92 "HgN/A
9:00 AM79 °FPassing clouds.5 mph84%29.95 "HgN/A
8:00 AM75 °FPassing clouds.6 mph89%29.92 "HgN/A
7:00 AM72 °FPassing clouds.3 mph94%29.89 "HgN/A
6:00 AM72 °FPassing clouds.3 mph94%29.89 "HgN/A
5:00 AM72 °FPassing clouds.3 mph94%29.89 "HgN/A
4:00 AM73 °FPassing clouds.No wind89%29.86 "HgN/A
3:00 AM73 °FPassing clouds.6 mph94%29.86 "HgN/A
Weather by CustomWeather, © 2016

See weather overviewHow to use our weather pages